Wind_Speed
65 63 62 61 61 61 61 60 59 59 58 59 59 59 58 57 54 51 48 47 44 42 39 37 35 33 32 31 29 27 25 23 22 24 23 21 22 24 27 27 27 24 23
71 69 67 66 65 65 65 65 65 64 63 63 63 63 63 62 60 58 54 52 50 47 44 41 38 36 34 32 30 28 26 24 22 22 22 20 20 23 26 26 26 25 25
66 63 60 57 56 57 58 61 64 67 68 69 68 67 66 65 63 61 59 57 55 52 49 46 42 39 36 34 31 29 26 24 22 21 21 20 19 21 24 26 27 26 25
57 54 50 47 44 42 43 45 50 56 63 68 71 72 71 70 67 65 62 60 58 55 53 50 46 43 39 36 33 30 27 24 22 21 20 18 17 19 22 24 25 25 25
52 50 46 43 41 38 36 36 37 40 45 52 60 67 72 74 73 70 66 62 59 57 54 52 49 46 42 38 35 31 29 26 23 20 19 17 15 16 18 21 22 23 23
53 50 48 45 43 41 38 37 35 35 35 37 40 47 56 65 72 74 72 68 62 58 55 53 51 48 45 41 37 34 31 27 24 21 18 16 14 14 16 19 21 22 22
56 54 52 50 48 45 43 40 38 36 34 34 33 34 37 45 55 66 72 72 68 62 57 54 52 49 47 43 39 36 32 29 25 21 18 16 14 13 15 17 18 20 21
58 56 54 53 51 49 47 44 42 40 37 36 35 34 34 34 38 46 59 68 70 67 61 56 53 51 48 45 41 38 34 30 26 22 19 16 14 13 14 16 17 18 19
57 55 53 52 52 51 48 46 44 43 41 39 37 36 33 32 32 34 40 53 63 66 64 59 55 52 50 47 44 40 37 32 27 23 20 17 15 14 14 15 16 16 18
52 50 48 48 50 50 48 46 45 43 41 40 39 37 35 33 30 29 30 38 50 59 62 61 57 53 51 48 46 43 39 34 29 25 22 18 16 15 15 15 15 16 16
45 43 42 43 45 46 46 44 43 42 41 39 38 37 35 33 31 28 26 29 39 50 57 58 56 53 50 48 47 45 41 36 31 26 22 19 17 16 16 15 15 14 15
40 37 36 37 39 40 41 40 39 39 39 38 36 35 34 33 31 28 25 25 31 41 51 53 52 51 49 48 47 46 43 38 33 28 24 20 18 16 15 14 14 14 14
36 32 29 29 30 32 34 35 35 35 34 34 34 33 33 32 31 28 25 23 25 34 45 51 51 49 49 48 47 45 42 38 34 29 25 21 19 16 15 14 15 15 16
33 28 24 22 22 24 26 28 29 30 30 30 31 31 32 31 30 28 26 23 23 31 41 49 48 47 46 47 47 45 42 38 34 30 26 22 19 17 16 16 16 17 18
33 27 21 18 15 16 18 20 23 24 26 28 29 30 31 31 30 28 26 24 24 29 38 47 48 47 46 46 46 44 41 38 34 30 26 23 20 19 18 18 18 18 18
34 28 20 15 10 9 10 14 17 19 22 24 26 28 29 30 30 29 28 26 25 28 35 43 48 47 47 46 45 43 40 37 33 30 27 24 22 21 20 20 20 20 21
36 30 22 15 9 5 5 8 12 15 17 20 23 25 26 27 28 27 27 27 27 28 35 42 46 48 46 46 45 43 40 36 33 31 28 25 24 23 22 22 22 22 23
37 33 27 19 12 5 2 5 8 12 14 17 19 21 23 25 25 25 25 26 27 29 33 42 44 46 45 44 43 41 39 36 34 31 28 26 25 24 24 24 25 25 25
36 34 31 26 21 15 11 8 8 9 12 14 16 18 20 22 22 23 23 24 26 27 31 40 42 43 44 43 41 39 37 35 33 31 29 27 26 26 26 27 27 26 25
34 33 31 29 26 22 19 16 14 12 11 13 14 16 18 20 21 22 21 22 23 25 30 36 39 40 40 39 39 37 36 34 32 30 29 28 27 28 28 28 27 26 25
32 31 31 29 27 24 21 19 17 16 14 13 13 14 17 19 20 21 21 22 23 26 30 34 35 37 37 37 36 35 33 32 31 30 29 28 28 29 29 28 27 25 25
31 30 29 28 26 25 23 21 19 17 15 13 13 14 15 17 20 21 23 26 28 29 30 30 32 34 35 34 34 33 32 31 30 30 29 29 29 29 28 26 25 25 25
31 29 28 26 25 24 22 20 18 17 16 16 16 17 19 21 23 25 28 30 30 29 29 29 30 31 33 33 33 32 30 29 29 28 28 28 28 27 26 25 25 25 25
32 29 28 27 25 24 23 22 21 21 21 21 22 24 24 25 26 28 31 32 30 29 28 27 28 29 30 30 30 30 29 29 28 27 27 26 26 25 25 24 24 24 24
33 30 29 27 26 25 24 24 24 25 26 26 27 28 29 30 31 31 31 30 29 28 28 27 27 27 27 28 27 27 27 26 25 24 23 23 22 22 23 23 23 24 24
31 29 28 28 27 26 25 24 25 26 27 27 28 28 28 29 30 30 29 28 28 28 28 27 26 26 27 26 26 25 24 23 22 22 21 21 21 21 21 22 22 23 23
Wind_Direction
292 288 284 279 274 270 267 264 262 259 257 255 254 254 253 252 251 250 250 252 254 255 256 258 259 262 264 268 271 275 279 284 289 288 285 273 258 248 242 241 238 236 231
297 293 289 284 278 272 267 262 259 257 256 254 253 253 253 252 251 250 248 249 251 253 255 257 258 259 261 263 266 269 274 280 286 286 284 276 259 247 240 237 236 236 234
301 299 296 291 285 277 270 263 258 254 253 252 251 251 251 251 251 249 248 247 248 250 251 253 255 256 258 258 260 263 268 275 282 284 282 277 262 248 240 236 234 234 236
301 300 298 296 291 284 276 268 261 255 252 250 249 248 248 249 249 248 247 246 246 246 247 249 251 252 254 254 254 257 261 269 276 281 280 277 265 251 242 236 233 233 235
297 295 294 293 291 287 281 276 271 263 257 253 250 248 247 246 246 246 246 244 244 243 243 244 246 247 248 249 250 251 254 262 270 275 278 276 267 251 243 237 234 234 239
293 289 287 285 283 281 278 275 272 268 264 260 257 253 250 247 245 244 243 242 241 240 240 240 241 243 244 245 246 246 249 256 263 269 275 274 262 251 244 238 237 238 242
288 285 281 278 277 276 275 273 270 266 263 261 261 259 257 253 248 244 240 239 237 236 236 236 237 238 239 240 242 242 245 250 257 264 270 268 260 251 244 240 239 240 240
287 282 277 274 272 270 269 268 267 265 262 260 260 261 262 260 256 249 241 236 234 232 232 232 233 234 235 236 238 240 242 245 251 258 262 262 256 247 242 239 238 238 240
288 282 276 271 268 267 265 265 264 262 259 258 257 258 260 259 258 254 246 236 231 228 227 227 229 231 232 233 236 237 238 240 245 253 255 255 251 243 242 241 241 240 242
292 285 277 271 266 264 262 261 261 259 257 255 254 253 253 253 254 254 250 238 228 224 223 223 225 228 229 232 233 234 235 237 242 246 249 247 244 240 238 241 241 241 241
300 290 281 273 266 263 260 257 256 254 253 251 249 248 247 246 246 248 248 240 226 218 216 217 219 224 226 229 230 230 231 233 237 240 242 241 237 234 234 236 237 238 237
310 299 287 277 268 262 258 255 252 250 248 247 244 241 239 238 238 240 243 240 225 214 210 208 210 215 220 224 225 226 228 230 232 235 237 236 233 231 230 230 229 230 230
321 311 299 283 270 262 257 253 250 247 244 242 238 233 231 231 231 233 235 234 225 212 204 200 203 208 213 218 220 221 224 226 227 230 232 232 230 229 226 224 223 221 222
332 323 314 298 278 264 255 250 245 241 239 235 231 227 226 225 226 227 228 228 223 210 201 194 196 201 208 213 216 217 219 220 222 225 228 230 228 225 221 219 220 218 215
344 337 327 314 291 269 254 245 237 233 231 227 225 223 221 220 220 221 223 222 219 211 202 194 192 195 201 208 212 213 214 216 218 222 226 226 224 221 218 217 215 211 207
354 348 340 329 309 280 251 235 227 224 222 219 217 217 216 215 216 217 218 219 218 213 203 196 192 193 198 203 208 211 212 212 214 220 223 223 221 217 214 212 210 207 206
8 5 0 353 337 299 245 219 212 209 208 207 208 209 210 210 211 213 215 215 214 210 204 196 192 191 194 200 205 208 209 211 214 218 221 220 218 214 211 209 208 207 205
18 21 22 24 27 39 111 171 184 189 194 196 198 199 201 203 205 208 208 209 209 208 204 196 190 190 192 196 200 202 206 209 212 215 217 216 213 209 206 205 206 206 205
26 30 35 41 48 60 77 102 132 156 172 181 186 190 194 197 201 201 200 203 203 202 199 194 188 187 189 192 195 198 202 205 208 210 211 210 208 205 203 203 203 205 206
29 33 38 44 52 63 74 85 96 112 136 159 170 178 182 185 187 187 186 185 186 187 187 186 184 184 186 188 191 195 198 201 204 205 205 205 204 201 200 200 202 205 209
30 35 39 45 50 58 68 77 85 93 104 123 143 159 167 172 175 175 175 173 170 170 174 175 176 179 182 185 189 192 194 196 198 200 201 201 200 198 197 200 203 208 213
31 35 38 43 49 56 63 70 75 81 94 110 127 141 151 159 163 164 161 160 156 157 161 164 168 173 178 182 185 186 188 192 194 196 196 196 195 195 198 202 206 212 217
33 36 39 43 48 54 61 66 69 76 88 101 111 121 132 137 140 145 147 147 146 148 152 159 166 170 175 178 179 181 183 185 187 188 189 190 192 195 200 205 210 215 222
36 39 41 45 49 54 60 65 72 80 89 99 106 111 115 121 128 134 137 138 139 143 148 154 160 166 171 173 174 176 177 179 180 182 185 189 194 199 205 210 216 222 229
39 43 45 48 53 59 66 74 81 87 93 98 102 106 110 115 120 125 128 131 135 140 145 150 154 158 162 164 167 169 172 175 178 183 188 194 200 207 213 218 224 230 236
41 44 48 53 58 65 74 84 91 95 99 102 104 107 111 115 118 121 125 128 133 139 145 149 152 154 157 160 163 167 172 177 183 188 195 202 208 215 221 227 233 239 245
Height
5711 5709 5706 5704 5702 5702 5702 5703 5705 5707 5710 5712 5714 5716 5719 5723 5726 5729 5733 5735 5738 5740 5743 5746 5749 5751 5753 5754 5755 5756 5756 5756 5754 5750 5749 5748 5748 5749 5750 5752 5755 5758 5761
5682 5679 5677 5675 5674 5674 5676 5677 5680 5683 5686 5689 5693 5696 5699 5703 5708 5712 5717 5721 5724 5728 5732 5735 5739 5741 5744 5745 5747 5747 5748 5748 5747 5745 5743 5742 5742 5743 5744 5746 5750 5752 5756
5659 5654 5651 5648 5646 5646 5647 5649 5652 5656 5660 5664 5669 5673 5678 5682 5687 5693 5699 5704 5709 5714 5719 5723 5727 5731 5734 5736 5738 5739 5740 5741 5741 5739 5737 5736 5736 5736 5738 5740 5743 5747 5750
5645 5639 5634 5629 5626 5624 5624 5624 5626 5630 5633 5638 5643 5648 5654 5659 5665 5672 5679 5686 5693 5699 5704 5710 5715 5720 5724 5727 5729 5731 5733 5734 5734 5733 5732 5730 5730 5730 5732 5734 5737 5741 5744
5633 5627 5621 5617 5614 5611 5610 5609 5609 5610 5611 5614 5618 5623 5628 5635 5642 5650 5658 5667 5675 5682 5689 5696 5702 5707 5712 5717 5720 5722 5725 5727 5728 5727 5726 5725 5724 5725 5726 5729 5732 5735 5738
5619 5613 5608 5604 5601 5599 5597 5596 5596 5596 5596 5597 5599 5602 5605 5611 5618 5626 5635 5646 5656 5665 5673 5681 5688 5694 5701 5706 5710 5713 5717 5719 5721 5721 5721 5720 5719 5720 5721 5723 5726 5729 5732
5601 5596 5591 5588 5585 5584 5583 5582 5582 5583 5583 5584 5585 5587 5588 5591 5596 5602 5611 5623 5635 5646 5656 5665 5674 5681 5688 5694 5699 5704 5708 5711 5714 5715 5715 5715 5715 5715 5716 5718 5720 5723 5726
5579 5574 5570 5568 5566 5566 5566 5566 5567 5568 5570 5571 5573 5574 5576 5578 5579 5583 5589 5600 5613 5626 5638 5649 5659 5667 5675 5682 5689 5694 5699 5703 5706 5708 5709 5709 5709 5710 5711 5713 5715 5717 5719
5555 5550 5547 5545 5545 5546 5547 5549 5551 5553 5555 5557 5560 5562 5564 5566 5568 5570 5573 5580 5592 5606 5620 5633 5644 5653 5662 5670 5678 5684 5690 5695 5699 5701 5703 5704 5704 5705 5706 5708 5710 5712 5714
5530 5526 5524 5523 5524 5525 5528 5531 5534 5537 5540 5543 5546 5549 5553 5555 5558 5560 5562 5566 5575 5588 5602 5617 5629 5639 5649 5658 5666 5673 5680 5686 5691 5695 5697 5698 5699 5700 5701 5703 5705 5707 5709
5510 5505 5502 5502 5502 5505 5509 5513 5517 5521 5525 5529 5533 5537 5541 5545 5548 5551 5554 5556 5561 5572 5586 5601 5615 5626 5637 5646 5655 5663 5670 5677 5683 5688 5690 5692 5694 5695 5697 5698 5700 5703 5705
5494 5488 5484 5483 5483 5486 5490 5495 5500 5505 5510 5515 5520 5525 5530 5535 5539 5543 5546 5549 5553 5562 5574 5588 5602 5614 5625 5634 5643 5652 5661 5669 5675 5680 5684 5686 5688 5690 5692 5694 5696 5698 5701
5483 5476 5471 5468 5468 5471 5475 5480 5485 5491 5496 5502 5508 5514 5519 5525 5530 5535 5539 5543 5547 5554 5565 5578 5591 5603 5614 5623 5633 5642 5651 5660 5667 5672 5676 5679 5682 5684 5687 5690 5692 5695 5697
5476 5468 5463 5459 5458 5459 5462 5467 5473 5478 5484 5490 5497 5503 5509 5516 5522 5528 5533 5537 5542 5548 5557 5568 5581 5593 5604 5613 5623 5633 5643 5651 5658 5664 5669 5673 5676 5679 5682 5685 5688 5691 5694
5471 5463 5457 5454 5452 5452 5454 5458 5463 5468 5474 5480 5487 5494 5501 5508 5514 5520 5526 5531 5536 5542 5549 5560 5572 5584 5594 5604 5615 5625 5634 5644 5651 5657 5662 5667 5670 5674 5677 5680 5684 5687 5691
5470 5461 5454 5450 5448 5448 5449 5452 5456 5461 5467 5473 5479 5486 5493 5500 5507 5514 5520 5525 5531 5536 5544 5553 5564 5576 5587 5597 5607 5618 5627 5636 5643 5650 5656 5661 5665 5668 5672 5676 5680 5683 5687
5471 5461 5454 5449 5447 5446 5447 5450 5453 5458 5463 5468 5474 5481 5487 5494 5501 5508 5514 5519 5525 5531 5539 5547 5558 5569 5579 5590 5601 5611 5621 5629 5636 5643 5650 5655 5659 5663 5667 5671 5676 5679 5683
5477 5467 5459 5453 5449 5448 5449 5451 5454 5458 5462 5467 5472 5478 5484 5490 5497 5503 5509 5514 5520 5527 5533 5542 5552 5564 5574 5585 5595 5605 5614 5623 5631 5638 5644 5650 5654 5659 5663 5667 5671 5675 5679
5486 5477 5469 5462 5457 5455 5454 5455 5457 5460 5464 5468 5472 5477 5482 5488 5494 5499 5505 5510 5516 5523 5530 5539 5549 5559 5571 5581 5591 5601 5610 5618 5626 5633 5639 5645 5650 5654 5658 5663 5667 5671 5675
5496 5488 5480 5474 5469 5466 5464 5463 5464 5465 5467 5470 5474 5478 5483 5487 5492 5498 5503 5509 5515 5521 5529 5539 5549 5559 5570 5580 5589 5598 5607 5615 5622 5629 5635 5640 5645 5650 5654 5659 5663 5667 5671
5506 5499 5492 5486 5481 5477 5475 5474 5473 5473 5474 5476 5478 5481 5485 5489 5494 5499 5504 5510 5516 5523 5531 5541 5550 5560 5570 5580 5588 5597 5605 5612 5619 5625 5631 5636 5641 5646 5651 5655 5659 5663 5667
5515 5509 5503 5498 5493 5489 5486 5484 5483 5482 5482 5483 5484 5486 5489 5492 5496 5501 5507 5513 5520 5528 5536 5544 5553 5562 5572 5580 5588 5596 5603 5610 5616 5622 5628 5633 5638 5643 5648 5653 5656 5660 5663
5525 5519 5513 5508 5504 5500 5497 5494 5493 5491 5491 5491 5491 5493 5495 5498 5502 5507 5513 5519 5526 5534 5542 5549 5557 5565 5573 5581 5588 5595 5602 5609 5615 5621 5626 5632 5636 5641 5646 5650 5653 5656 5659
5535 5529 5524 5519 5515 5511 5507 5505 5503 5501 5500 5500 5501 5502 5504 5507 5510 5515 5521 5527 5534 5541 5548 5555 5562 5569 5576 5583 5590 5596 5602 5609 5615 5620 5625 5630 5635 5639 5643 5647 5649 5652 5654
5546 5540 5535 5530 5526 5522 5519 5516 5515 5513 5512 5512 5513 5514 5516 5518 5522 5526 5531 5536 5542 5548 5555 5561 5567 5573 5580 5586 5593 5599 5605 5610 5616 5621 5625 5630 5633 5637 5640 5643 5645 5647 5648
5557 5552 5546 5541 5537 5534 5531 5529 5527 5526 5525 5525 5526 5527 5528 5531 5534 5537 5541 5546 5551 5556 5562 5567 5573 5579 5584 5590 5596 5602 5607 5612 5616 5621 5625 5628 5632 5634 5637 5639 5640 5642 5642